Location: Saint Peter Port
(49.4500°N, 2.5330°W)
Time: 12:23:33
(UTC+01:00)

Cosmos 2242 Rocket - Visible Passes

Search period start: 28 June 2016 00:00
Search period end: 08 July 2016 00:00
Orbit: 618 x 653 km, 82.5° (Epoch: 27 June)

Date Brightness Start Highest point End Pass type
(mag) Time Alt. Az. Time Alt. Az. Time Alt. Az.
28 Jun 6.0 00:02:15 10° NW 00:05:02 16° W 00:07:49 10° WSW visible
28 Jun 3.8 22:45:22 10° NNW 22:49:50 70° W 22:54:13 10° S visible
29 Jun 4.9 23:08:07 10° NNW 23:12:13 36° W 23:16:20 10° SSW visible
30 Jun 5.9 23:31:17 10° NW 23:34:29 19° W 23:37:41 10° SW visible
01 Jul 3.7 22:14:41 10° NNW 22:19:12 83° W 22:23:43 10° S visible
01 Jul 6.5 23:56:14 10° WNW 23:56:36 10° W 23:56:59 10° W visible
02 Jul 4.7 22:37:23 10° NNW 22:41:38 42° W 22:45:53 10° SSW visible
03 Jul 5.7 23:00:24 10° NW 23:03:55 23° W 23:07:27 10° SW visible
04 Jul 6.3 23:24:18 10° WNW 23:26:05 12° W 23:27:52 10° WSW visible
05 Jul 4.5 22:06:39 10° NNW 22:11:02 50° W 22:15:25 10° S visible
06 Jul 5.6 22:29:34 10° NNW 22:33:21 27° W 22:37:09 10° SW visible
07 Jul 6.3 22:53:06 10° NW 22:55:33 15° W 22:58:00 10° WSW visible
